[[{"header":{"parameterUnit":"m.s-1","parameterCategory":1,"la1":30.2991,"la2":30.254,"lo1":-89.0895,"lo2":-89.0444,"dy":0.0017,"dx":0.0017,"nx":28,"ny":28,"refTime":"2023-04-20T21:00:00:Z","depth":0,"parameterNumber":2,"parameterNumberName":"U-component_of_WINDS"},"data":[0,0,0,0,0,0,0,0,0,0,0,0,0,0,0,0,0,0,0,0,0,0,0,0,0,0,0,0,0,0,0,0,0,0,0,0,0,0,0,0,0,0,0,0,0,0,0,0,0,0,0,0,0,0,0,0,0,0,-3.6191,-3.6191,0,-3.6183,-3.6182,-3.6182,-3.6103,-3.6101,-3.6099,-3.6097,-3.609,-3.6091,-3.6093,0,0,0,0,0,0,0,0,0,0,0,0,0,-3.6139,-3.614,-3.6191,-3.6191,-3.6191,-3.6183,-3.6182,-3.6182,-3.6104,-3.6101,-3.6099,-3.6097,-3.6089,-3.6091,-3.6093,0,0,0,0,0,0,0,0,0,0,0,0,0,-3.6149,-3.6141,-3.6191,-3.615,-3.6147,-3.6183,-3.6182,-3.6182,-3.6104,-3.6101,-3.6098,-3.6095,-3.6088,-3.6091,-3.6093,-3.6168,0,0,-3.6101,-3.6102,0,0,0,0,0,0,0,0,-3.6149,-3.6151,-3.6156,-3.6153,-3.6149,-3.6141,-3.6161,-3.6177,-3.6105,-3.612,-3.6097,-3.6094,-3.6109,-3.611,-3.6115,-3.6167,-3.6167,-3.6101,-3.6102,-3.6103,-3.6104,0,0,0,0,0,0,0,-3.6148,-3.6151,-3.6187,-3.6156,-3.6152,-3.6133,-3.6131,-3.6164,-3.6131,-3.6119,-3.6113,-3.6113,-3.6106,-3.6112,-3.6114,-3.6167,-3.6101,-3.6103,-3.6104,-3.6105,-3.628,-3.6283,0,0,0,0,0,0,-3.6153,-3.6151,-3.6188,-3.6187,-3.6142,-3.6136,-3.6134,-3.6147,-3.6131,-3.6126,-3.6116,-3.6109,-3.611,-3.6111,-3.6113,-3.6199,-3.6103,-3.6106,-3.6107,-3.6277,-3.6281,-3.6284,0,0,0,0,0,0,-3.6152,-3.6157,-3.6188,-3.6168,-3.617,-3.614,-3.6155,-3.6148,-3.6154,-3.6128,-3.6122,-3.6128,-3.6107,-3.611,-3.6155,-3.6198,-3.6107,-3.6109,-3.6273,-3.6278,-3.6283,-3.6371,0,0,0,0,0,0,-3.6151,-3.6157,-3.6185,-3.6169,-3.6172,-3.6229,-3.6157,-3.615,-3.6158,-3.615,-3.6138,-3.6133,-3.6105,-3.6151,-3.6157,-3.6199,-3.6111,-3.6269,-3.6276,-3.6281,-3.6364,-3.6379,-3.6391,0,0,0,0,0,-3.615,-3.621,-3.6187,-3.6191,-3.6205,-3.6232,-3.6234,-3.62,-3.6162,-3.6189,-3.6173,-3.6134,-3.6193,-3.6157,-3.6162,-3.6206,-3.6267,-3.6274,-3.6281,-3.6359,-3.6376,-3.639,0,0,0,0,0,0,-3.6232,-3.6207,-3.6181,-3.6238,-3.6238,-3.6219,-3.6252,-3.6219,-3.623,-3.6222,-3.618,-3.6178,-3.6229,-3.6222,-3.6183,-3.6277,-3.6223,-3.6231,-3.628,-3.6296,-3.6309,-3.6309,-3.6113,0,0,0,0,0,-3.6257,-3.628,-3.6258,-3.631,-3.6312,-3.6283,-3.6293,-3.6267,-3.6265,-3.6265,-3.6252,-3.6252,-3.627,-3.6283,-3.6298,-3.6364,-3.636,-3.6397,-3.641,-3.6421,-3.6428,-3.6462,-3.6478,-3.6308,-3.6308,-3.6308,0,0,-3.6308,-3.6297,-3.6315,-3.6327,-3.6323,-3.6349,-3.6283,-3.6312,-3.6331,-3.6269,-3.631,-3.6301,-3.6298,-3.6354,-3.6378,-3.635,-3.6475,-3.643,-3.6439,-3.644,-3.6471,-3.6487,-3.6502,-3.6313,-3.6312,-3.6311,0,0,-3.6414,-3.6409,-3.6452,-3.645,-3.6447,-3.6427,-3.6438,-3.6424,-3.6415,-3.6456,-3.6411,-3.6433,-3.6465,-3.6465,-3.6469,-3.6578,-3.6541,-3.6584,-3.6652,-3.6686,-3.6699,-3.6711,-3.6749,-3.6763,-3.6592,-3.6592,-3.6592,0,-3.6478,-3.6514,-3.6478,-3.6511,-3.6518,-3.6464,-3.6507,-3.6508,-3.6509,-3.6515,-3.6484,-3.6524,-3.6518,-3.6573,-3.66,-3.6605,-3.6616,-3.6584,-3.67,-3.6711,-3.6722,-3.6757,-3.6772,-3.6597,-3.6597,-3.6596,-3.6596,0,-3.6593,-3.662,-3.6655,-3.6658,-3.6669,-3.6707,-3.6677,-3.6693,-3.6667,-3.6651,-3.6694,-3.6685,-3.6698,-3.671,-3.6685,-3.6761,-3.6744,-3.6707,-3.6651,-3.6744,-3.6776,-3.679,-3.6605,-3.6603,-3.6601,-3.66,0,0,-3.6749,-3.6733,-3.6746,-3.6747,-3.674,-3.6759,-3.6796,-3.6808,-3.6822,-3.6826,-3.6855,-3.6885,-3.6851,-3.6856,-3.6831,-3.6861,-3.6946,-3.682,-3.6819,-3.6843,-3.703,-3.7056,-3.7073,-3.6923,-3.6926,-3.6927,-3.703,0,-3.6851,-3.6911,-3.688,-3.6945,-3.6968,-3.6918,-3.695,-3.6949,-3.6936,-3.6954,-3.6939,-3.6961,-3.6915,-3.6918,-3.6945,-3.693,-3.6983,-3.6923,-3.6949,-3.6951,-3.695,-3.709,-3.7118,-3.7215,-3.7042,-3.7045,-3.7046,0,-3.6977,-3.6986,-3.7053,-3.7041,-3.705,-3.7079,-3.7088,-3.7107,-3.7105,-3.7093,-3.71,-3.7068,-3.7103,-3.7049,-3.7097,-3.7056,-3.7066,-3.7061,-3.7063,-3.7063,-3.7003,-3.7093,-3.7245,-3.7259,-3.7066,-3.7065,-3.7063,0,-3.7083,-3.7112,-3.7155,-3.7158,-3.7146,-3.7167,-3.7164,-3.7159,-3.7169,-3.7178,-3.7184,-3.7197,-3.7204,-3.7215,-3.7187,-3.7151,-3.7239,-3.7182,-3.723,-3.7231,-3.7249,-3.7248,-3.7404,-3.7258,-3.7258,-3.7257,-3.7257,0,-3.7198,-3.7241,-3.7203,-3.7229,-3.7276,-3.7241,-3.7288,-3.7279,-3.7276,-3.73,-3.7258,-3.7282,-3.7245,-3.7265,-3.7245,-3.7287,-3.7291,-3.7282,-3.7276,-3.7285,-3.7286,-3.7289,-3.7281,-3.7261,-3.726,-3.726,-3.7259,0,-3.7324,-3.73,-3.7344,-3.733,-3.7327,-3.7362,-3.735,-3.7374,-3.7359,-3.739,-3.7395,-3.7371,-3.7393,-3.7367,-3.7387,-3.7372,-3.743,-3.7414,-3.743,-3.7425,-3.7474,-3.7469,-3.7636,-3.7656,-3.7499,-3.75,-3.7502,0,-3.7398,-3.743,-3.7419,-3.7433,-3.7431,-3.7453,-3.7463,-3.7431,-3.7443,-3.7444,-3.7469,-3.7487,-3.75,-3.7537,-3.7521,-3.7536,-3.752,-3.7577,-3.7522,-3.753,-3.7519,-3.7517,-3.752,-3.7588,-3.759,-3.7592,-3.7593,0,-3.7533,-3.752,-3.7536,-3.7549,-3.7562,-3.757,-3.7575,-3.7588,-3.7555,-3.7571,-3.7593,-3.7603,-3.7623,-3.7642,-3.7652,-3.7649,-3.7615,-3.7611,-3.7622,-3.7631,-3.7639,-3.7634,-3.746,-3.7607,-3.7605,-3.7604,-3.7604,-3.7603,-3.7635,-3.766,-3.7657,-3.7677,-3.7677,-3.7683,-3.7705,-3.7693,-3.771,-3.7724,-3.7704,-3.7732,-3.773,-3.7741,-3.7741,-3.7762,-3.7738,-3.7755,-3.7759,-3.7763,-3.777,-3.7637,-3.7764,-3.7764,-3.7764,-3.7763,-3.7763,0,-3.7766,-3.7762,-3.7781,-3.7789,-3.7805,-3.7773,-3.7777,-3.7792,-3.7816,-3.7818,-3.7832,-3.7857,-3.7875,-3.7861,-3.7877,-3.7896,-3.7881,-3.7901,-3.7899,-3.7898,-3.7791,-3.7779,-3.7913,-3.7913,-3.7913,-3.7913,-3.7913,-3.7913,-3.7837,-3.7879,-3.7866,-3.7908,-3.7903,-3.7929,-3.7934,-3.794,-3.7941,-3.7971,-3.7986,-3.7977,-3.7972,-3.7987,-3.8003,-3.7998,-3.8005,-3.803,-3.8021,-3.7921,-3.7906,-3.7892,-3.788,-3.8033,-3.8033,-3.8125,-3.8126,-3.8127]},{"header":{"parameterUnit":"m.s-1","parameterCategory":1,"la1":30.2991,"la2":30.254,"lo1":-89.0895,"lo2":-89.0444,"dy":0.0017,"dx":0.0017,"nx":28,"ny":28,"refTime":"2023-04-20T21:00:00:Z","depth":0,"parameterNumber":3,"parameterNumberName":"V-component_of_WINDS"},"data":[0,0,0,0,0,0,0,0,0,0,0,0,0,0,0,0,0,0,0,0,0,0,0,0,0,0,0,0,0,0,0,0,0,0,0,0,0,0,0,0,0,0,0,0,0,0,0,0,0,0,0,0,0,0,0,0,0,0,3.2996,3.2995,0,3.2905,3.2904,3.2903,3.2802,3.28,3.2799,3.2797,3.2701,3.27,3.2699,0,0,0,0,0,0,0,0,0,0,0,0,0,3.3081,3.308,3.2996,3.2995,3.2994,3.2905,3.2904,3.2903,3.2802,3.28,3.2798,3.2797,3.2701,3.27,3.2699,0,0,0,0,0,0,0,0,0,0,0,0,0,3.3022,3.3079,3.2996,3.2933,3.2926,3.2905,3.2904,3.2902,3.2802,3.28,3.2798,3.2796,3.2702,3.27,3.2698,3.2731,0,0,3.2693,3.2692,0,0,0,0,0,0,0,0,3.3026,3.3019,3.2943,3.2937,3.293,3.2863,3.2898,3.2845,3.2803,3.2849,3.2797,3.2795,3.2756,3.275,3.2738,3.2727,3.2723,3.2693,3.2692,3.2691,3.269,0,0,0,0,0,0,0,3.303,3.3023,3.296,3.2942,3.2934,3.2908,3.2898,3.2888,3.2816,3.2845,3.2838,3.2828,3.2752,3.274,3.2735,3.2721,3.2693,3.2691,3.269,3.2689,3.2734,3.2736,0,0,0,0,0,0,3.3044,3.3027,3.2963,3.2957,3.2974,3.2909,3.2897,3.2886,3.2816,3.2803,3.283,3.2824,3.2744,3.2737,3.2731,3.2766,3.2691,3.2689,3.2688,3.2732,3.2735,3.2737,0,0,0,0,0,0,3.3046,3.3039,3.2966,3.299,3.2979,3.291,3.2899,3.2886,3.2873,3.2805,3.2791,3.2831,3.2742,3.2733,3.2732,3.2761,3.2688,3.2687,3.2729,3.2733,3.2736,3.2835,0,0,0,0,0,0,3.3049,3.3041,3.3053,3.2991,3.2978,3.2971,3.29,3.2886,3.2871,3.2861,3.2802,3.279,3.2739,3.2736,3.2731,3.2757,3.2685,3.2726,3.2731,3.2735,3.2829,3.2842,3.2853,0,0,0,0,0,3.3052,3.3083,3.3054,3.3047,3.2992,3.2972,3.2965,3.2907,3.2873,3.2885,3.2841,3.2792,3.2759,3.2737,3.273,3.2756,3.2724,3.273,3.2735,3.2824,3.2839,3.2852,0,0,0,0,0,0,3.3148,3.3074,3.304,3.3052,3.302,3.2955,3.2968,3.2925,3.29,3.2892,3.2821,3.2808,3.2816,3.2786,3.2762,3.2785,3.2734,3.2739,3.2805,3.2819,3.283,3.2837,3.2684,0,0,0,0,0,3.3172,3.3163,3.3098,3.3114,3.31,3.3037,3.3027,3.2985,3.2948,3.2933,3.2889,3.2855,3.2836,3.2826,3.2805,3.2825,3.281,3.284,3.2851,3.2861,3.2865,3.2875,3.2887,3.2754,3.2754,3.2754,0,0,3.3218,3.3176,3.3175,3.3133,3.3103,3.3095,3.3026,3.302,3.3014,3.2932,3.2929,3.2896,3.2852,3.2863,3.2865,3.2837,3.2899,3.2868,3.2876,3.2875,3.2881,3.2894,3.2905,3.2758,3.2757,3.2756,0,0,3.3299,3.3267,3.3278,3.325,3.3205,3.3164,3.3167,3.3109,3.3085,3.3081,3.302,3.3011,3.2981,3.2953,3.2934,3.3008,3.2961,3.3003,3.3063,3.3073,3.3084,3.3093,3.312,3.313,3.3007,3.3007,3.3008,0,3.3362,3.3349,3.3289,3.3287,3.3271,3.3198,3.3209,3.3184,3.3135,3.3126,3.3096,3.3058,3.3023,3.3027,3.3045,3.3032,3.3033,3.3009,3.3087,3.3096,3.3103,3.3128,3.3138,3.3013,3.3012,3.3012,3.3011,0,3.3429,3.3421,3.3435,3.3392,3.3377,3.3382,3.3322,3.3314,3.3275,3.3237,3.3234,3.3191,3.3161,3.3158,3.3119,3.3156,3.3141,3.3101,3.3048,3.3122,3.3144,3.3153,3.3021,3.3019,3.3017,3.3016,0,0,3.3567,3.3492,3.3498,3.3478,3.3425,3.3417,3.3419,3.3391,3.3387,3.3356,3.3356,3.3333,3.3296,3.3275,3.3232,3.3241,3.3303,3.3199,3.3197,3.3221,3.3343,3.3374,3.3386,3.3273,3.3274,3.3275,3.3347,0,3.3639,3.3639,3.3586,3.36,3.3593,3.3524,3.3526,3.3494,3.3458,3.3446,3.3406,3.3392,3.3344,3.3331,3.3337,3.3295,3.3327,3.3289,3.3272,3.3272,3.3285,3.3398,3.343,3.35,3.3355,3.3357,3.3358,0,3.3723,3.3699,3.3714,3.3662,3.3656,3.3659,3.363,3.3619,3.3581,3.3555,3.3534,3.3486,3.3484,3.3435,3.3431,3.3407,3.3397,3.3375,3.3376,3.3373,3.3319,3.3397,3.352,3.3531,3.337,3.3369,3.3368,0,3.3823,3.3794,3.38,3.3785,3.3724,3.3727,3.3702,3.3662,3.365,3.3624,3.3615,3.3589,3.3575,3.3557,3.3503,3.3472,3.3506,3.3452,3.3484,3.3486,3.3494,3.3494,3.3618,3.3488,3.3488,3.3487,3.3487,0,3.3909,3.3921,3.3844,3.3847,3.3859,3.3797,3.381,3.3778,3.3744,3.3739,3.3678,3.3675,3.3605,3.3594,3.3552,3.3556,3.355,3.3529,3.3517,3.3534,3.3537,3.3527,3.3521,3.349,3.3489,3.3489,3.3488,0,3.4023,3.3972,3.3973,3.3917,3.3903,3.3914,3.3865,3.3865,3.3827,3.3823,3.3818,3.3757,3.3742,3.3687,3.3657,3.3629,3.3647,3.3624,3.366,3.3653,3.3688,3.3686,3.3809,3.3823,3.3684,3.3686,3.3687,0,3.4081,3.4089,3.4034,3.4027,3.4005,3.3995,3.3983,3.3923,3.3912,3.3871,3.3877,3.3857,3.3837,3.3816,3.3769,3.3746,3.3723,3.3768,3.3719,3.3737,3.3725,3.3725,3.3726,3.3779,3.3781,3.3782,3.3783,0,3.4191,3.4166,3.415,3.4127,3.4114,3.4092,3.4067,3.4065,3.3998,3.3989,3.3973,3.3959,3.393,3.3911,3.3881,3.3854,3.3808,3.3799,3.3806,3.3823,3.3844,3.3834,3.3689,3.3796,3.3795,3.3794,3.3793,3.3793,3.4278,3.4283,3.4245,3.4231,3.4206,3.4184,3.4182,3.4145,3.4131,3.4104,3.4069,3.4058,3.4021,3.3977,3.3954,3.3944,3.3918,3.3927,3.3929,3.3933,3.3941,3.3846,3.3938,3.3938,3.3937,3.3937,3.3936,0,3.4385,3.4358,3.4346,3.4313,3.4302,3.4261,3.4231,3.4224,3.4216,3.4186,3.4169,3.4152,3.4133,3.4086,3.4063,3.4065,3.4043,3.4061,3.406,3.4055,3.3965,3.3962,3.4079,3.4079,3.4079,3.4079,3.4079,3.4079,3.4439,3.4445,3.4416,3.4409,3.4381,3.4371,3.4358,3.4338,3.4314,3.4298,3.4283,3.4253,3.4216,3.419,3.4172,3.4159,3.4153,3.4178,3.4158,3.4075,3.4061,3.4048,3.4045,3.4178,3.4178,3.4249,3.4249,3.425]}]]